FW6151 Weather Reports


Display with metric or nautical units.
time (UTC)temp
F
wind
direction
speed
MPH
gust
MPH
rain 1hr
in
rain 24hr
in
rain mn
in
humidity
%
barometer
mb
20260504050530 52 240 0.0 4.0 0.00 0.00 0.00 79 1017.0
20260504045524 51 313 0.0 3.0 0.00 0.00 0.00 79 1017.0
20260504045023 51 313 0.0 3.0 0.00 0.00 0.00 79 1017.0
20260504044536 51 315 0.0 3.0 0.00 0.00 0.00 80 1017.0
20260504044024 51 321 1.0 4.0 0.00 0.00 0.00 80 1017.0
20260504043522 51 320 1.0 4.0 0.00 0.00 0.00 79 1017.0
20260504043022 51 309 0.0 3.0 0.00 0.00 0.00 79 1016.9
20260504042519 51 315 0.0 4.0 0.00 0.00 0.00 79 1017.0
20260504042019 51 321 1.0 4.0 0.00 0.00 0.00 79 1017.0
20260504041519 51 316 2.0 4.0 0.00 0.00 0.00 79 1017.1
20260504041119 51 319 0.0 4.0 0.00 0.00 0.00 79 1017.1
20260504040521 51 251 0.0 0.0 0.00 0.00 0.00 78 1017.0
20260504040019 51 246 0.0 0.0 0.00 0.00 0.00 78 1017.1
20260504035517 51 246 0.0 2.0 0.00 0.00 0.00 78 1017.1
20260504035017 51 254 0.0 2.0 0.00 0.00 0.00 78 1017.1
20260504034517 51 216 0.0 3.0 0.00 0.00 0.00 78 1017.0
20260504034015 52 218 0.0 4.0 0.00 0.00 0.00 78 1017.1
20260504033516 52 228 1.0 4.0 0.00 0.00 0.00 78 1017.1
20260504033016 52 309 1.0 4.0 0.00 0.00 0.00 78 1017.3
20260504032514 52 314 2.0 5.0 0.00 0.00 0.00 78 1017.4
20260504032013 52 272 2.0 6.0 0.00 0.00 0.00 78 1017.4
20260504031513 52 326 3.0 6.0 0.00 0.00 0.00 78 1017.5
20260504031011 52 322 3.0 6.0 0.00 0.00 0.00 78 1017.6
20260504030511 52 299 0.0 3.0 0.00 0.00 0.00 78 1017.5
20260504030011 52 300 1.0 3.0 0.00 0.00 0.00 77 1017.6
20260504025510 52 286 0.0 5.0 0.00 0.00 0.00 77 1017.7
20260504025009 52 312 1.0 6.0 0.00 0.00 0.00 77 1017.8
20260504024516 53 315 3.0 5.0 0.00 0.00 0.00 77 1017.7
20260504024012 53 321 1.0 4.0 0.00 0.00 0.00 77 1017.8
20260504023512 53 316 0.0 3.0 0.00 0.00 0.00 76 1017.9
20260504023007 53 316 0.0 5.0 0.00 0.00 0.00 76 1017.8
20260504022510 53 317 1.0 5.0 0.00 0.00 0.00 76 1017.9
20260504022005 53 320 0.0 4.0 0.00 0.00 0.00 76 1017.9
20260504021505 53 305 1.0 3.0 0.00 0.00 0.00 76 1017.8
20260504021004 53 311 1.0 4.0 0.00 0.00 0.00 76 1017.7
20260504020504 54 305 1.0 5.0 0.00 0.00 0.00 76 1017.8
20260504020008 54 315 2.0 5.0 0.00 0.00 0.00 76 1017.7
20260504015503 54 338 2.0 4.0 0.00 0.00 0.00 75 1017.6
20260504015002 54 287 0.0 3.0 0.00 0.00 0.00 75 1017.6
20260504014502 54 286 0.0 2.0 0.00 0.00 0.00 75 1017.6
20260504014003 54 273 0.0 2.0 0.00 0.00 0.00 74 1017.7
20260504013500 54 273 0.0 3.0 0.00 0.00 0.00 74 1017.6
20260504013100 55 273 0.0 3.0 0.00 0.00 0.00 73 1017.7
20260504012559 55 268 0.0 4.0 0.00 0.00 0.00 72 1017.6
20260504012058 55 304 1.0 4.0 0.00 0.00 0.00 72 1017.6
20260504011558 56 321 1.0 4.0 0.00 0.00 0.00 71 1017.5
20260504011056 56 321 1.0 5.0 0.00 0.00 0.00 71 1017.5
20260504010556 56 319 1.0 4.0 0.00 0.00 0.00 70 1017.5
20260504010059 56 315 1.0 4.0 0.00 0.00 0.00 70 1017.6
20260504005555 56 315 2.0 4.0 0.00 0.00 0.00 69 1017.6
20260504005057 56 304 1.0 4.0 0.00 0.00 0.00 69 1017.7
20260504004554 56 310 0.0 2.0 0.00 0.00 0.00 69 1017.5
20260504004052 57 310 0.0 2.0 0.00 0.00 0.00 68 1017.6
20260504003555 57 310 0.0 2.0 0.00 0.00 0.00 68 1017.6
20260504003052 57 310 0.0 3.0 0.00 0.00 0.00 67 1017.6
20260504002550 58 310 0.0 3.0 0.00 0.00 0.00 67 1017.6
20260504002050 58 310 1.0 3.0 0.00 0.00 0.00 66 1017.6
20260504001608 58 321 0.0 4.0 0.00 0.00 0.00 66 1017.7
20260504001049 58 321 0.0 4.0 0.00 0.00 0.00 65 1017.8
20260504000550 58 304 0.0 3.0 0.00 0.00 0.00 65 1017.7
20260504000049 58 303 0.0 3.0 0.00 0.00 0.00 65 1017.7
20260503235548 58 302 0.0 3.0 0.00 0.00 0.00 65 1017.6
20260503235046 58 292 0.0 0.0 0.00 0.00 0.00 65 1017.6
20260503234546 58 292 0.0 0.0 0.00 0.00 0.00 65 1017.6
20260503234046 58 292 0.0 0.0 0.00 0.00 0.00 65 1017.5
20260503233546 58 303 0.0 0.0 0.00 0.00 0.00 65 1017.6
20260503233045 59 303 0.0 2.0 0.00 0.00 0.00 65 1017.6
20260503232549 59 303 0.0 2.0 0.00 0.00 0.00 65 1017.6
20260503232045 59 304 0.0 2.0 0.00 0.00 0.00 65 1017.6
20260503231545 59 303 0.0 1.0 0.00 0.00 0.00 65 1017.6
20260503231045 59 315 0.0 1.0 0.00 0.00 0.00 64 1017.6
20260503230544 59 315 0.0 3.0 0.00 0.00 0.00 64 1017.6
20260503230044 59 319 1.0 5.0 0.00 0.00 0.00 63 1017.6
20260503225644 59 323 1.0 5.0 0.00 0.00 0.00 63 1017.6
20260503225043 59 323 2.0 4.0 0.00 0.00 0.00 63 1017.6
20260503224543 58 107 0.0 0.0 0.00 0.00 0.00 64 1017.6
20260503224043 59 107 0.0 0.0 0.00 0.00 0.00 64 1017.5
20260503223542 59 107 0.0 0.0 0.00 0.00 0.00 64 1017.6
20260503223043 59 107 0.0 0.0 0.00 0.00 0.00 64 1017.6
20260503222542 59 107 0.0 0.0 0.00 0.00 0.00 65 1017.5
20260503222039 59 107 0.0 0.0 0.00 0.00 0.00 63 1017.5
20260503221543 59 107 0.0 0.0 0.00 0.00 0.00 63 1017.5
20260503221041 59 107 0.0 0.0 0.00 0.00 0.00 63 1017.5
20260503220538 59 107 0.0 0.0 0.00 0.00 0.00 63 1017.5
20260503220049 60 107 0.0 1.0 0.00 0.00 0.00 62 1017.4
20260503215537 60 107 0.0 1.0 0.00 0.00 0.00 62 1017.4
20260503215036 59 108 0.0 2.0 0.00 0.00 0.00 62 1017.4
20260503214537 59 108 0.0 2.0 0.00 0.00 0.00 62 1017.3
20260503214039 59 108 0.0 2.0 0.00 0.00 0.00 63 1017.4
20260503213539 59 110 0.0 0.0 0.00 0.00 0.00 64 1017.3
20260503213040 59 110 0.0 0.0 0.00 0.00 0.00 64 1017.3
20260503212536 60 110 0.0 0.0 0.00 0.00 0.00 64 1017.3
20260503212038 60 110 0.0 1.0 0.00 0.00 0.00 62 1017.2
20260503211550 60 110 0.0 1.0 0.00 0.00 0.00 62 1017.3
20260503211040 60 110 0.0 1.0 0.00 0.00 0.00 63 1017.3
20260503210536 60 110 0.0 1.0 0.00 0.00 0.00 63 1017.2
20260503210036 60 110 0.0 1.0 0.00 0.00 0.00 62 1017.2
20260503205535 61 108 0.0 4.0 0.00 0.00 0.00 59 1017.2
20260503205035 60 108 1.0 4.0 0.00 0.00 0.00 59 1017.1
20260503204535 60 237 0.0 0.0 0.00 0.00 0.00 62 1017.1
20260503204035 60 237 0.0 0.0 0.00 0.00 0.00 63 1017.1
20260503203535 61 237 0.0 0.0 0.00 0.00 0.00 62 1017.1
20260503203036 61 237 0.0 0.0 0.00 0.00 0.00 58 1017.1
20260503202535 61 235 0.0 0.0 0.00 0.00 0.00 61 1017.1
20260503202035 61 235 0.0 0.0 0.00 0.00 0.00 60 1017.1
20260503201535 61 235 0.0 0.0 0.00 0.00 0.00 60 1017.2
20260503201034 60 235 0.0 0.0 0.00 0.00 0.00 61 1017.1
20260503200534 60 235 0.0 0.0 0.00 0.00 0.00 62 1017.1
20260503200036 60 235 0.0 0.0 0.00 0.00 0.00 61 1017.1
20260503195533 60 235 0.0 0.0 0.00 0.00 0.00 61 1017.3
20260503195033 61 235 0.0 0.0 0.00 0.00 0.00 60 1017.4
20260503194533 61 235 0.0 0.0 0.00 0.00 0.00 60 1017.4
20260503194035 61 235 0.0 0.0 0.00 0.00 0.00 59 1017.3
20260503193533 61 235 0.0 0.0 0.00 0.00 0.00 58 1017.3
20260503193040 61 235 0.0 0.0 0.00 0.00 0.00 58 1017.4
20260503192533 61 235 0.0 0.0 0.00 0.00 0.00 58 1017.3
20260503192033 61 235 0.0 0.0 0.00 0.00 0.00 59 1017.3
20260503191536 61 235 0.0 0.0 0.00 0.00 0.00 58 1017.1
20260503191033 62 235 0.0 0.0 0.00 0.00 0.00 57 1017.2
20260503190533 62 235 0.0 0.0 0.00 0.00 0.00 58 1017.0
20260503190035 62 235 0.0 0.0 0.00 0.00 0.00 58 1017.1
20260503185533 62 235 0.0 0.0 0.00 0.00 0.00 57 1016.9
20260503185032 62 235 0.0 0.0 0.00 0.00 0.00 57 1016.9
20260503184532 62 235 0.0 0.0 0.00 0.00 0.00 57 1016.9
20260503184032 62 235 0.0 0.0 0.00 0.00 0.00 56 1016.9
20260503183532 62 235 0.0 0.0 0.00 0.00 0.00 56 1016.9
20260503183038 62 235 0.0 0.0 0.00 0.00 0.00 57 1016.8
20260503182532 62 235 0.0 0.0 0.00 0.00 0.00 57 1016.9
20260503182031 63 235 0.0 1.0 0.00 0.00 0.00 56 1016.9
20260503181601 63 235 0.0 2.0 0.00 0.00 0.00 56 1016.9
20260503181033 63 235 0.0 3.0 0.00 0.00 0.00 54 1017.0
20260503180534 63 345 1.0 3.0 0.00 0.00 0.00 53 1017.1
20260503180031 63 325 1.0 5.0 0.00 0.00 0.00 52 1017.1
20260503175530 63 327 1.0 5.0 0.00 0.00 0.00 52 1017.1
20260503175030 64 315 1.0 5.0 0.00 0.00 0.00 52 1017.2
20260503174530 64 324 1.0 3.0 0.00 0.00 0.00 53 1017.2
20260503174032 64 22 1.0 3.0 0.00 0.00 0.00 52 1017.3
20260503173530 63 23 0.0 2.0 0.00 0.00 0.00 53 1017.3
20260503173044 64 311 0.0 2.0 0.00 0.00 0.00 53 1017.3
20260503172529 64 311 0.0 4.0 0.00 0.00 0.00 51 1017.4
20260503172029 64 339 1.0 5.0 0.00 0.00 0.00 51 1017.3
20260503171529 64 310 2.0 7.0 0.00 0.00 0.00 50 1017.3
20260503171029 64 314 1.0 7.0 0.00 0.00 0.00 50 1017.4
20260503170529 64 333 0.0 3.0 0.00 0.00 0.00 50 1017.5
20260503150525 68 21 2.0 8.0 0.00 0.00 0.00 45 1017.3
20260503131019 76 20 2.0 5.0 0.00 0.00 0.00 39 1016.2
20260503130519 75 123 1.0 6.0 0.00 0.00 0.00 40 1016.2
20260503110513 74 196 1.0 4.0 0.00 0.00 0.00 43 1016.5
20260503100125 70 360 1.0 4.0 0.00 0.00 0.00 47 1017.0
20260503081554 70 194 0.0 0.0 0.00 0.00 0.00 49 1017.6
20260503081047 70 194 0.0 3.0 0.00 0.00 0.00 54 1017.7
20260503080552 70 194 0.0 3.0 0.00 0.00 0.00 55 1017.8
20260503072539 63 290 0.0 0.0 0.00 0.00 0.00 67 1018.1
20260503072035 63 291 0.0 0.0 0.00 0.00 0.00 67 1018.1
20260503071536 62 246 0.0 2.0 0.00 0.00 0.00 68 1018.2
20260503071031 61 245 0.0 2.0 0.00 0.00 0.00 69 1018.3
20260503070530 61 245 0.0 3.0 0.00 0.00 0.00 70 1018.3
20260503055017 54 306 0.0 0.0 0.00 0.00 0.00 79 1018.7
20260503054522 54 306 0.0 2.0 0.00 0.00 0.00 79 1018.7
20260503054019 54 306 0.0 2.0 0.00 0.00 0.00 79 1018.7
20260503053517 54 305 0.0 4.0 0.00 0.00 0.00 79 1018.6
20260503053030 54 305 0.0 4.0 0.00 0.00 0.00 80 1018.5
20260503052526 53 301 0.0 1.0 0.00 0.00 0.00 80 1018.4
20260503052017 53 315 0.0 3.0 0.00 0.00 0.00 80 1018.3